RH
87 89 88 85 79 81 89 94 92 83 75 69 64 58 51 49 48 46 41 36 32 28 25 23 22 22 21 21 20 20 20 20 20 21 22 21 23 24 24 23 23 24 26 27 27 29 28 34 41 40 38 38 37 35 31 29 27 27 29 30 31 31 31 31 32 32 28 22 17 16 18 20 22 23 24 24 23 21 20 20 23 25 28 32 37
71 72 77 76 71 75 86 92 82 71 68 64 60 56 51 48 46 43 38 33 29 27 25 24 22 21 21 20 20 20 20 21 21 22 23 23 25 25 25 26 26 27 29 29 30 30 29 36 40 38 38 37 38 37 34 31 28 26 25 26 27 28 27 27 29 30 28 22 18 18 19 20 22 23 24 24 23 22 20 21 24 26 29 34 41
60 63 68 68 65 64 77 88 75 63 63 61 59 56 50 44 43 40 35 31 28 26 25 23 22 21 21 21 21 21 22 22 22 23 24 24 25 26 27 28 29 32 34 33 32 30 27 30 34 36 37 36 37 39 38 34 31 27 24 23 23 23 22 22 24 25 25 20 17 19 18 18 20 22 24 25 24 23 21 21 23 26 30 36 44
61 62 64 62 57 53 62 73 66 59 61 60 55 49 44 41 40 36 31 28 26 25 23 22 21 22 23 24 24 23 23 23 23 23 24 24 24 26 27 29 32 36 38 37 34 31 29 30 32 34 34 34 35 38 40 39 35 30 26 24 23 21 18 17 18 20 21 19 18 18 17 17 20 22 23 24 24 24 22 22 23 26 31 37 44
61 57 56 54 51 47 50 56 54 55 61 58 47 42 40 38 36 31 27 25 24 22 21 22 23 25 26 26 26 25 25 24 23 23 24 24 25 25 27 29 32 35 38 39 36 33 31 31 31 30 29 31 32 34 38 41 39 33 29 27 25 22 18 15 15 15 17 18 18 17 18 19 20 21 23 23 23 24 23 23 24 27 31 37 42
53 49 49 49 49 47 44 46 46 48 50 43 36 35 35 32 29 24 23 21 20 19 21 23 25 27 27 26 26 25 23 22 22 22 23 23 24 25 28 30 30 32 36 39 37 34 33 32 31 30 32 34 35 35 36 39 41 38 33 31 27 23 18 15 14 14 13 15 16 16 17 18 19 19 22 23 23 24 24 24 25 28 31 35 39
52 50 49 48 47 44 41 41 41 41 36 31 29 29 27 24 21 19 18 17 18 21 24 26 27 28 26 25 23 22 21 19 20 20 21 23 24 27 29 30 30 32 36 39 38 37 37 38 38 40 43 44 43 39 37 37 39 40 38 36 31 25 19 15 14 13 12 12 14 15 16 17 18 18 21 23 22 24 24 25 26 27 29 32 35
57 51 47 45 42 38 38 36 34 32 28 26 23 21 19 18 16 16 16 17 21 26 28 29 29 27 24 22 20 19 17 16 17 19 21 23 25 28 30 31 32 34 37 39 40 41 41 41 40 43 46 47 46 43 42 41 40 41 40 39 36 31 22 18 16 15 14 12 11 12 13 15 17 18 20 22 21 23 24 24 25 26 27 29 30
53 49 46 44 40 35 34 31 28 25 22 19 17 15 15 14 15 16 17 21 28 32 32 33 31 27 23 20 17 15 14 15 17 20 23 25 26 27 29 32 35 37 37 38 40 41 42 41 37 37 37 38 40 39 40 42 43 44 44 42 39 37 29 23 19 18 17 14 12 11 11 12 17 20 19 20 21 22 24 24 24 25 26 27 28
45 46 46 42 36 33 31 26 23 20 17 15 14 14 15 15 17 18 21 27 33 36 36 36 34 30 25 19 16 14 15 17 20 22 24 25 26 25 28 34 41 43 39 37 38 38 38 39 37 36 34 34 35 35 39 42 43 48 50 47 43 41 36 29 23 21 20 18 15 13 11 11 16 20 20 20 21 22 23 22 23 23 24 25 26
40 40 38 36 33 30 26 22 19 16 14 14 15 16 18 20 20 22 26 33 37 39 40 39 37 35 30 23 18 17 20 22 24 25 25 26 25 26 31 39 49 49 44 39 37 40 42 41 38 38 39 40 40 42 47 46 44 48 50 48 47 45 39 33 28 23 22 20 18 16 13 11 13 16 20 20 18 22 22 21 22 22 23 23 24
28 27 25 28 31 28 23 18 15 14 15 16 19 21 23 23 23 25 31 37 39 40 41 40 39 40 39 33 28 26 27 30 33 33 33 31 26 28 35 45 54 53 45 41 42 51 54 47 41 40 42 45 47 50 56 54 48 46 46 47 48 48 43 37 32 29 27 24 19 17 15 16 16 13 15 18 17 19 21 21 21 22 22 22 23
17 16 15 20 27 26 20 16 13 15 18 20 22 25 26 27 26 29 34 38 39 40 39 38 40 44 45 45 43 41 40 43 45 47 46 42 36 39 46 50 54 51 44 46 52 58 57 51 47 45 44 44 47 51 55 57 51 46 47 49 51 55 54 47 40 36 34 31 27 22 18 17 17 12 11 16 19 19 18 20 21 21 21 21 22
10 11 12 14 22 23 18 14 14 17 20 22 24 27 28 29 29 31 35 37 38 37 36 37 40 42 45 47 48 48 48 50 52 54 54 51 49 51 55 53 52 50 48 51 55 58 56 51 48 45 44 44 45 47 50 54 53 49 48 49 52 56 57 57 53 48 43 38 34 32 29 24 19 15 12 12 16 18 18 20 21 21 22 22 21
11 12 11 11 18 20 16 14 16 19 20 22 24 27 30 31 30 31 33 35 35 33 34 35 35 37 39 42 45 45 46 48 50 52 52 52 52 53 54 51 47 45 42 42 44 48 48 46 46 47 49 49 48 47 48 52 55 55 52 51 52 51 52 55 55 54 51 46 42 39 38 36 30 23 16 12 12 14 17 19 20 21 21 22 22
15 13 10 9 15 17 15 14 17 19 21 22 23 27 30 31 30 29 30 31 31 31 32 32 32 33 36 39 42 46 47 49 50 51 51 50 49 48 44 39 34 32 31 34 38 41 43 46 49 53 56 57 56 54 53 54 56 59 60 60 60 60 62 63 62 58 54 51 48 44 42 44 43 37 26 18 13 11 13 16 18 19 20 22 22
18 12 9 8 13 17 16 15 17 20 20 21 24 27 30 30 29 28 28 29 29 30 30 31 31 33 35 38 42 46 48 50 51 49 46 41 36 33 30 28 29 32 36 40 43 43 44 44 45 46 47 45 44 44 46 48 51 55 57 58 59 59 60 62 67 70 67 61 56 51 49 49 51 50 41 28 20 15 12 13 15 17 18 20 21
19 11 6 7 12 16 18 16 17 19 19 21 25 26 27 27 26 26 26 27 28 29 29 29 29 31 33 35 37 39 38 37 36 33 28 23 21 23 27 32 36 40 41 40 39 37 34 30 29 27 25 21 23 26 27 28 31 33 33 32 31 29 29 31 40 53 65 70 67 62 59 57 54 55 54 43 29 21 16 13 13 14 16 18 19
19 9 6 8 12 16 18 16 16 18 19 22 25 24 23 22 21 21 22 23 24 23 23 23 25 26 26 25 25 24 22 19 17 15 12 11 13 16 20 24 28 29 28 26 24 22 18 15 13 12 12 13 19 21 16 13 13 14 14 12 11 11 11 11 13 20 35 52 63 67 67 65 61 57 58 54 41 29 21 17 15 15 16 17 18
17 8 8 10 13 16 16 15 15 18 21 23 24 21 18 15 13 11 12 13 13 14 14 16 18 18 17 16 13 12 12 10 9 8 7 7 8 9 11 13 14 14 12 11 11 11 11 10 10 9 10 11 17 17 11 9 10 11 10 9 9 9 9 10 9 9 13 23 38 53 62 67 69 65 61 60 52 38 26 21 19 16 17 17 17
16 8 9 12 14 16 15 14 15 19 23 24 22 17 13 9 7 4 4 5 6 8 9 10 11 12 11 9 7 7 7 8 7 7 7 6 7 9 10 9 9 8 7 6 6 7 8 9 9 8 8 8 11 11 10 9 10 10 10 9 9 9 9 10 10 10 9 10 16 30 45 56 66 70 66 63 59 48 31 23 24 21 19 18 17
15 9 11 15 14 14 14 13 16 23 25 23 18 13 9 7 5 3 2 4 5 6 6 6 7 8 7 6 6 7 6 7 6 6 6 6 8 9 8 7 7 7 7 7 7 7 7 8 8 9 9 9 10 10 10 10 10 11 10 10 10 9 9 9 9 10 10 9 9 14 26 39 53 63 68 66 64 61 45 28 26 26 23 22 20
15 9 12 17 14 13 13 13 19 26 26 21 15 11 9 8 7 5 3 4 4 4 5 6 6 6 6 7 6 6 6 6 5 6 6 6 7 9 10 9 8 7 7 7 7 7 8 8 8 9 9 9 10 11 11 11 11 11 11 11 11 10 9 10 10 9 10 10 9 9 14 26 40 53 62 65 65 69 65 47 33 27 26 26 25
16 10 13 17 12 13 13 13 22 27 25 18 13 10 9 10 9 8 5 3 3 5 7 8 8 8 8 8 6 6 6 6 7 8 7 7 9 13 16 14 9 7 6 6 6 7 7 7 8 8 8 8 9 10 10 11 11 12 12 13 12 11 10 10 10 9 10 9 10 9 10 18 30 44 55 61 62 63 67 64 53 39 30 27 27
16 12 15 18 13 13 12 14 24 27 22 15 11 10 9 9 10 10 8 6 6 8 11 12 12 12 12 11 9 8 10 12 12 11 9 9 11 15 16 13 9 7 6 6 6 6 6 6 7 7 7 8 8 9 9 10 11 12 12 13 12 12 11 11 11 10 10 9 9 9 10 14 23 36 48 58 62 58 59 63 64 56 44 35 32
15 13 17 18 13 15 12 16 26 25 20 14 10 9 9 9 9 10 11 11 11 12 14 16 17 17 16 13 10 10 12 13 13 11 9 8 10 11 11 10 9 8 7 7 6 6 6 6 6 7 7 7 8 8 9 9 10 12 12 12 12 12 12 11 12 11 10 10 10 10 10 11 16 27 39 50 57 58 58 60 61 60 53 46 42
15 14 17 17 14 16 13 18 26 22 18 13 9 9 8 9 8 9 11 13 14 14 16 19 21 19 16 12 9 9 10 10 9 9 8 8 9 9 9 9 9 9 8 8 7 7 7 7 7 7 7 7 7 8 8 9 9 10 11 12 12 12 12 12 13 12 11 10 10 10 10 10 12 18 28 36 46 56 58 60 62 60 59 58 58
15 14 17 16 16 16 13 19 24 19 14 10 8 8 7 7 6 8 10 12 13 14 15 17 17 16 12 9 7 8 9 9 8 8 9 9 9 9 9 9 9 9 9 9 8 7 7 7 7 8 8 8 8 8 8 8 8 9 10 11 11 11 12 13 13 13 12 11 10 10 10 11 11 13 18 21 34 50 51 52 56 57 60 61 62
14 14 16 16 17 15 14 20 21 16 12 8 7 6 6 6 5 7 9 11 12 12 12 12 11 10 8 7 8 9 9 9 9 9 9 9 10 10 10 10 10 10 10 10 9 8 7 6 7 7 7 8 9 9 8 8 8 8 9 10 10 11 12 13 13 13 12 11 11 11 10 11 11 11 12 13 22 36 39 40 41 41 45 46 45
14 15 16 16 16 14 15 20 17 13 10 7 5 5 5 5 6 6 8 10 11 11 10 10 9 9 7 7 8 9 9 9 9 9 9 10 11 11 12 12 12 13 13 13 12 12 11 9 7 6 6 7 8 9 9 8 8 8 8 9 10 10 12 12 13 13 13 12 12 12 11 11 12 11 11 10 14 21 27 32 35 34 34 37 38
14 15 16 17 15 13 16 19 15 11 8 5 4 3 4 5 7 7 8 10 10 10 9 9 9 8 7 7 7 8 8 8 8 8 9 10 11 12 12 13 13 14 14 14 15 14 14 13 11 9 7 7 7 7 8 8 8 8 7 8 9 9 10 12 12 12 12 12 12 12 12 11 12 12 11 11 12 14 18 26 34 34 30 35 40
13 15 16 17 15 13 17 16 13 9 6 5 3 2 3 4 6 8 10 11 11 10 9 9 9 8 8 8 8 8 8 7 7 8 8 9 9 10 10 10 11 11 12 12 12 12 11 12 12 11 9 8 8 7 6 7 7 8 8 7 8 9 9 11 11 12 12 12 12 13 13 12 12 12 11 12 13 13 14 20 27 24 18 22 28
13 14 15 17 16 14 16 14 11 8 5 4 3 2 2 3 6 9 11 12 12 11 11 10 10 10 9 9 9 8 8 7 7 7 7 7 8 8 9 10 11 12 13 13 13 13 12 11 11 11 11 10 9 8 7 6 6 7 7 7 7 8 8 10 11 11 12 12 12 13 13 13 13 13 12 13 13 11 12 14 16 14 13 15 16
13 14 15 17 17 15 15 12 10 8 6 5 3 2 2 3 5 9 12 13 13 12 12 12 12 12 11 10 9 8 8 8 7 7 7 8 8 9 10 11 13 15 16 18 19 19 17 15 14 13 12 11 10 9 8 7 7 6 7 7 7 8 8 9 10 11 12 12 11 12 13 13 13 14 13 13 13 12 12 11 11 11 13 15 14
13 13 15 16 16 16 16 13 11 9 7 6 4 3 2 3 5 8 11 13 14 13 12 13 13 14 13 11 9 8 9 8 7 7 7 8 8 9 10 12 14 16 19 22 24 24 22 19 18 17 15 14 13 12 9 8 8 8 8 7 6 7 7 8 9 10 12 12 11 11 12 13 13 14 14 14 13 13 13 12 12 11 12 13 13
13 13 15 15 14 15 15 14 13 10 8 6 4 2 2 3 6 7 8 12 15 14 12 12 14 15 13 10 9 10 9 8 7 7 8 7 8 9 10 12 13 16 21 25 27 26 23 21 20 19 19 19 19 17 15 12 11 11 10 9 7 7 7 7 8 9 11 12 12 11 11 12 13 13 13 14 14 13 13 13 12 12 13 12 12
12 13 15 17 16 14 13 11 11 10 8 6 4 2 3 4 5 5 6 12 15 13 10 10 12 13 11 10 10 10 9 7 7 7 7 8 8 10 11 12 14 17 22 26 27 26 24 22 21 20 20 21 22 22 21 20 18 16 15 13 9 7 6 7 7 8 10 11 11 11 11 11 11 12 12 13 13 13 12 12 12 12 12 12 12
11 12 13 17 18 16 14 10 7 7 6 6 6 3 4 5 4 4 5 11 14 11 9 9 11 11 9 10 10 9 8 7 7 7 7 8 9 11 13 15 16 19 23 26 26 25 23 22 21 19 20 22 24 26 26 26 24 22 21 18 15 11 8 6 6 7 9 10 11 11 11 10 11 11 11 12 12 13 12 12 12 12 12 12 11
10 12 13 15 18 17 14 10 6 5 5 6 6 5 4 4 4 4 6 10 12 10 10 10 10 10 9 9 9 8 7 7 7 8 8 9 10 13 16 17 19 21 24 26 24 23 24 26 25 23 22 24 27 31 33 34 35 32 28 24 20 16 12 9 7 6 7 8 9 10 10 10 11 11 11 11 11 12 12 12 13 13 12 12 12
9 12 13 14 16 16 14 12 7 5 6 6 6 5 4 5 4 4 6 9 11 11 12 11 9 9 9 9 8 7 7 7 8 8 9 9 10 13 16 19 20 22 23 23 22 27 36 40 40 38 34 32 33 35 40 46 51 52 49 42 34 26 18 12 9 7 6 7 8 9 10 10 11 11 11 11 11 11 12 12 12 13 13 13 13
9 11 14 15 15 16 16 14 9 6 6 5 6 5 4 4 3 3 6 9 11 13 13 12 10 9 9 8 7 7 7 7 7 8 9 9 9 11 15 18 19 21 21 21 28 40 49 51 52 52 50 45 42 41 44 51 59 65 67 63 56 48 36 23 14 9 7 7 7 8 9 10 10 11 11 11 11 11 11 12 11 12 12 12 13
7 9 13 16 16 17 17 14 11 8 6 5 4 5 5 4 2 3 6 8 11 13 13 13 11 9 8 7 7 7 7 7 7 9 9 9 9 10 12 15 18 19 18 25 39 47 48 48 51 54 55 53 51 49 50 54 60 67 71 71 68 64 56 45 29 15 9 7 7 7 7 8 9 10 10 11 11 12 11 11 11 11 12 12 12
5 7 11 14 16 16 15 14 11 8 7 5 3 4 4 3 2 2 5 8 11 13 12 13 11 8 7 7 7 7 7 6 8 9 9 9 9 10 11 13 16 17 20 33 44 42 42 45 45 46 50 54 54 52 52 54 58 62 66 67 67 63 62 60 49 32 18 10 7 7 7 6 8 9 9 10 10 11 11 11 11 11 11 12 12
4 5 8 12 14 13 12 11 9 6 5 5 4 3 3 2 2 2 3 6 9 11 10 10 9 7 6 7 7 7 6 7 8 8 8 8 9 10 10 12 15 16 26 40 41 35 34 33 32 37 45 52 51 45 42 46 51 55 57 59 60 59 61 62 56 45 31 18 10 7 7 7 7 7 8 9 9 10 10 10 11 11 11 11 11
4 4 7 10 11 10 9 7 5 4 4 4 3 3 3 2 2 2 3 3 6 8 7 8 8 6 6 7 7 7 6 7 7 8 8 8 10 10 10 12 13 18 33 42 37 30 22 19 24 34 43 46 41 32 29 31 35 40 44 49 54 58 61 60 54 47 39 29 20 12 8 7 7 8 7 8 8 8 9 9 9 10 10 10 11
4 4 6 8 8 6 5 5 4 4 3 3 3 3 3 3 3 3 3 2 3 5 5 6 7 6 6 7 7 7 6 7 7 7 8 8 10 10 10 12 13 22 38 41 34 24 14 17 26 31 38 39 30 22 20 20 20 22 24 29 36 43 48 50 48 45 42 39 36 29 21 14 9 7 7 8 8 7 8 8 8 9 9 10 10
4 4 5 6 5 4 4 4 4 4 3 3 3 3 3 4 4 3 2 2 2 4 4 5 6 6 6 7 7 6 6 6 6 7 8 8 10 10 11 11 14 27 41 40 31 18 11 17 24 27 33 33 23 18 17 18 17 17 17 17 18 21 24 27 29 29 30 33 36 38 40 38 30 19 11 8 7 8 8 8 8 9 9 10 11
4 4 5 5 4 4 4 4 4 4 3 3 3 4 4 4 4 3 3 3 2 3 3 4 5 5 6 6 6 6 6 6 7 8 8 8 9 10 11 10 14 30 41 38 26 14 10 15 19 24 30 27 19 17 18 20 20 20 20 20 18 17 16 15 15 15 16 17 19 23 32 43 48 45 33 20 12 9 8 9 9 10 11 11 12
3 3 4 4 4 4 4 4 4 3 3 3 3 4 4 4 4 4 4 3 2 3 3 4 5 5 5 6 6 5 5 6 7 8 8 8 9 9 11 10 15 29 39 35 22 12 11 14 16 22 25 21 18 18 20 22 25 26 26 26 26 25 23 20 17 14 13 11 11 12 15 23 33 43 43 35 25 16 12 11 11 11 13 14 15
3 4 3 4 4 3 4 3 3 3 3 3 3 3 3 3 4 4 4 4 3 3 3 3 4 4 5 5 5 6 6 6 7 8 8 8 8 10 11 9 14 27 36 33 20 12 13 15 16 20 21 21 21 22 23 24 25 26 27 28 29 30 30 29 27 23 19 15 12 10 10 12 15 21 26 27 23 20 16 15 14 15 16 17 19
2 3 3 3 3 3 3 3 3 3 3 3 3 3 3 3 3 4 4 4 4 4 3 3 4 4 5 5 6 6 6 6 7 8 8 8 8 10 11 9 12 24 33 30 18 12 15 17 18 21 23 25 25 24 24 25 25 26 26 26 26 26 27 28 29 29 27 24 20 16 12 10 10 11 13 14 14 15 15 14 14 14 15 15 16
Wind_Speed
16 17 16 14 13 14 16 17 15 16 17 17 17 16 15 14 13 13 13 14 14 13 12 12 12 12 12 12 12 12 12 11 11 9 9 9 10 11 11 11 11 10 9 9 8 7 7 7 7 7 8 8 8 7 6 7 9 9 9 9 8 8 8 8 7 7 7 7 8 8 9 10 9 9 8 8 8 9 10 11 13 14 15 15 14
14 15 15 13 13 13 14 15 14 16 17 16 15 14 13 13 13 13 13 14 13 12 11 12 12 11 11 10 11 11 11 11 11 10 10 10 11 11 11 11 10 9 9 8 8 7 6 6 7 7 7 7 7 7 6 7 8 9 9 8 8 8 8 8 8 7 7 8 8 9 10 11 10 10 9 9 9 9 10 12 13 15 15 14 14
14 13 13 12 11 11 13 13 14 16 16 15 13 12 12 12 12 13 14 13 12 11 11 12 11 10 9 10 11 11 11 11 11 10 10 10 11 11 11 11 10 9 9 9 8 7 6 6 7 7 7 6 6 6 6 6 7 8 8 8 8 8 9 9 9 9 8 9 9 9 11 11 11 11 10 10 10 10 11 12 14 15 14 14 14
12 12 11 10 10 11 12 12 13 15 15 12 11 11 11 12 12 13 13 12 11 11 11 12 10 9 9 10 11 11 11 11 10 10 10 10 11 11 11 10 9 9 9 9 8 7 6 6 7 7 7 6 6 6 6 6 6 7 7 7 7 7 8 9 9 10 10 10 10 10 11 12 12 11 10 10 10 11 11 12 14 15 14 13 13
10 11 11 11 11 12 12 12 12 14 13 10 9 10 10 11 11 12 12 11 11 11 12 11 10 9 10 10 10 11 11 10 10 9 10 11 11 11 10 10 9 9 10 10 8 7 7 7 7 7 6 6 6 6 6 6 5 5 5 6 7 7 8 8 9 10 11 12 11 11 11 12 13 12 11 11 11 11 12 12 13 14 14 13 13
9 10 12 12 12 12 12 12 11 12 11 8 8 9 10 10 11 11 11 11 11 12 12 10 10 9 10 10 9 10 10 10 9 10 11 11 11 11 10 10 10 10 10 10 9 8 8 8 8 7 7 6 6 6 6 5 5 4 4 5 6 7 8 8 8 9 10 12 12 12 12 12 12 12 12 11 12 12 12 13 13 13 13 13 13
8 9 10 12 12 12 11 11 11 10 9 8 9 9 9 9 10 10 11 11 12 13 12 10 10 10 10 10 10 10 10 9 10 11 11 11 11 11 11 10 10 11 11 11 10 9 8 8 8 8 8 7 7 7 6 5 5 4 4 4 5 7 8 9 9 9 9 11 12 13 12 11 12 12 12 12 12 12 12 13 13 13 13 13 13
7 8 8 9 10 11 11 10 10 9 9 9 9 9 9 9 10 10 11 12 13 13 11 11 11 11 11 10 10 10 10 10 11 11 11 11 11 11 11 11 11 11 11 10 9 8 8 8 8 8 8 8 8 7 7 6 5 4 3 4 5 7 8 9 9 9 9 10 11 12 12 11 11 12 12 12 12 12 12 12 13 13 13 13 12
7 7 6 7 9 10 10 10 9 9 9 9 9 9 9 9 10 11 12 12 13 12 12 12 12 12 12 11 11 10 11 11 12 12 11 11 10 10 10 10 10 10 10 10 9 8 8 8 8 8 8 7 7 7 7 6 6 5 4 5 6 7 8 9 10 10 9 9 10 11 11 10 10 11 12 12 12 12 12 12 12 12 12 11 11
7 6 6 7 9 10 9 9 9 10 9 9 9 9 9 10 11 12 12 12 12 12 12 12 13 13 12 12 11 11 11 12 13 12 11 11 11 10 10 10 10 10 9 9 8 8 8 8 7 7 8 8 7 7 7 7 6 6 6 7 7 8 9 9 10 10 9 8 9 9 10 10 9 10 10 12 12 12 11 11 11 11 10 10 10
7 6 6 7 8 9 9 9 10 10 9 9 9 9 10 10 11 11 11 12 13 13 12 13 13 13 13 12 11 11 12 13 13 12 11 11 11 11 10 10 9 9 9 8 8 7 7 7 7 7 7 8 8 8 8 7 6 7 8 8 8 9 9 10 10 11 11 9 8 9 9 9 9 9 9 10 12 12 11 12 11 11 10 10 9
7 7 7 7 8 8 9 10 10 9 9 9 9 10 10 10 10 11 12 13 13 13 13 13 13 13 13 12 12 12 12 12 12 11 10 10 10 10 10 9 9 8 8 8 7 6 6 7 7 7 7 7 7 7 7 7 6 6 7 8 9 9 9 9 10 11 11 10 9 9 9 9 10 10 9 10 11 12 12 12 12 11 11 10 9
8 7 6 7 7 8 9 10 9 8 8 9 9 10 9 9 10 12 13 13 13 13 13 13 13 14 14 13 13 13 13 12 12 10 10 9 9 9 9 9 9 8 8 8 6 6 6 7 7 6 6 6 6 6 6 7 7 6 7 8 9 9 9 8 8 9 9 10 10 10 9 9 9 10 10 10 11 12 12 12 12 12 11 10 10
8 6 6 6 7 8 9 10 9 8 8 8 9 9 9 10 11 13 14 13 13 13 13 13 14 14 15 15 14 14 14 14 13 11 10 10 10 10 9 9 9 8 8 7 7 7 7 7 7 7 6 6 6 6 6 6 6 6 6 7 9 9 8 7 7 7 7 8 8 9 9 9 9 9 9 10 10 11 12 12 13 12 11 11 10
8 6 5 5 7 8 10 10 8 7 7 8 9 9 9 11 13 14 13 13 13 13 13 13 14 15 15 15 15 15 15 15 14 13 12 11 11 11 11 10 10 9 9 8 8 9 9 9 9 9 9 8 7 7 7 7 7 7 6 6 6 6 6 6 5 5 5 6 6 6 7 8 8 8 9 9 10 11 11 12 12 12 12 11 11
8 7 5 5 7 9 10 10 8 7 8 8 8 9 10 12 13 13 13 13 13 13 13 13 14 14 14 15 15 15 15 15 14 14 13 13 13 12 12 11 11 11 10 10 10 11 11 11 11 11 12 11 10 10 9 9 8 8 7 7 7 6 6 5 4 4 4 4 5 5 6 6 6 7 7 8 9 10 10 11 11 12 12 12 11
7 6 6 6 7 9 9 9 8 8 8 9 9 10 12 13 13 13 13 13 13 13 13 13 13 14 14 14 15 15 15 15 15 15 15 15 15 14 13 12 12 12 12 12 12 13 13 12 13 13 13 13 13 13 12 11 11 10 9 9 9 8 7 6 5 4 3 2 3 4 5 5 6 6 6 7 8 8 9 10 11 11 11 11 11
6 6 6 6 7 8 8 8 8 8 9 9 10 11 13 13 14 14 14 13 13 13 13 13 14 15 15 15 15 15 15 16 16 17 17 17 17 16 16 15 14 13 13 14 14 14 14 14 14 13 13 14 15 15 14 13 13 12 12 11 11 10 9 8 7 5 4 2 2 3 3 4 5 6 6 6 7 7 8 9 9 10 10 10 11
6 6 6 7 8 8 8 8 8 9 9 10 11 12 14 14 14 14 14 13 13 14 14 14 15 16 16 16 17 17 17 18 18 19 19 18 18 17 17 17 16 15 16 16 15 15 15 15 14 14 14 15 16 15 15 14 13 13 13 12 12 12 12 11 10 8 6 4 2 1 2 3 4 5 6 6 7 8 8 8 9 9 10 10 10
5 6 7 8 8 7 7 8 9 10 10 11 12 13 14 14 14 14 14 14 15 15 16 16 17 17 17 18 18 18 18 19 20 20 19 19 18 18 18 18 18 17 16 16 16 15 15 15 14 14 13 14 14 14 14 13 13 12 12 12 12 12 12 13 12 11 10 7 4 2 1 1 2 4 5 7 7 8 8 9 9 9 9 10 10
5 5 7 8 7 7 7 8 10 11 11 12 13 14 15 15 15 15 15 16 17 17 17 18 18 18 18 19 19 19 19 19 20 20 19 18 18 18 18 18 17 16 16 15 15 14 14 13 13 12 12 12 13 13 12 12 11 11 11 10 10 11 11 12 12 12 12 10 7 4 2 1 1 2 4 6 7 8 8 8 9 8 8 8 9
4 5 7 7 7 7 7 8 10 12 12 13 14 14 15 16 16 16 17 18 18 18 18 18 18 19 19 19 19 19 19 19 19 19 18 17 17 17 17 16 16 15 14 13 13 12 12 12 11 11 11 12 12 12 12 11 11 11 10 10 10 10 10 11 10 11 11 11 10 7 5 2 1 1 2 4 6 7 8 7 8 8 8 8 8
3 6 7 7 6 7 8 9 11 13 13 14 14 15 16 16 17 17 18 18 18 19 18 18 18 19 19 19 19 19 19 19 18 18 17 16 16 15 15 15 14 14 13 12 12 11 11 11 11 11 11 12 12 12 11 11 11 11 10 10 10 10 10 10 10 9 10 10 10 9 7 5 3 2 1 3 5 7 8 8 8 8 8 8 7
3 6 7 6 6 7 9 11 12 14 14 14 15 15 16 17 17 17 18 18 18 18 18 18 18 18 19 19 19 18 18 17 17 16 15 15 14 14 14 13 13 12 12 11 11 11 11 11 11 11 11 11 11 11 11 10 10 10 10 10 10 10 10 10 9 9 9 9 9 9 8 7 6 5 3 2 4 6 7 8 8 8 7 7 7
4 6 7 6 5 8 10 13 14 15 15 14 15 16 17 17 18 18 18 18 18 18 18 18 18 18 18 18 18 18 17 16 15 14 14 13 13 12 12 12 12 12 11 11 11 11 10 10 10 10 10 10 10 10 10 10 9 9 9 9 9 9 10 9 9 8 8 8 8 8 8 8 8 7 5 3 3 3 5 6 7 7 6 6 6
4 6 7 6 5 8 12 15 16 16 15 15 15 16 17 17 18 18 18 18 18 18 18 18 18 17 17 17 17 16 15 14 14 14 13 12 12 12 12 12 11 11 11 10 10 10 9 9 8 9 8 8 8 8 8 8 8 7 8 8 8 9 10 9 8 8 8 7 7 7 8 8 8 8 6 4 3 2 2 3 4 4 5 5 5
4 7 8 6 6 10 15 17 17 17 16 16 16 16 16 17 18 18 18 18 18 18 18 18 17 16 16 16 16 15 14 14 14 14 13 12 12 11 11 11 10 10 10 9 9 9 8 8 8 7 7 7 7 7 7 7 7 7 7 7 7 9 10 9 8 8 7 7 7 7 8 8 8 7 6 5 5 4 3 2 2 2 3 3 4
5 8 9 7 8 12 17 19 18 17 17 17 17 16 17 17 17 18 18 18 18 18 18 17 16 16 16 15 15 15 14 14 13 13 12 11 11 10 10 10 9 9 9 9 8 8 8 8 7 7 6 6 6 6 6 6 6 6 6 6 7 8 9 8 8 7 7 7 7 8 8 8 7 7 6 6 5 4 4 3 2 1 0 1 2
6 8 9 8 10 14 19 19 18 18 18 18 17 17 17 17 17 17 17 17 17 17 17 16 16 15 15 15 15 14 14 13 13 12 12 11 11 10 9 9 9 8 8 8 7 7 7 7 6 6 6 6 6 5 5 5 5 5 5 5 6 7 7 7 7 6 6 7 8 8 8 8 7 6 6 6 6 4 4 4 3 3 2 2 1
8 9 10 9 12 17 19 19 18 18 18 18 18 18 17 17 16 16 16 16 15 16 16 15 15 15 14 14 14 14 13 13 13 12 11 11 11 10 9 8 8 8 7 7 6 6 6 5 6 6 5 5 5 5 4 5 5 4 4 4 4 4 5 5 6 6 6 7 8 8 8 8 7 6 6 6 5 4 4 4 4 3 3 2 1
10 11 11 10 14 18 19 19 18 18 18 18 18 18 17 17 16 16 15 15 14 15 15 15 14 14 14 14 14 14 13 13 13 12 11 11 10 10 9 8 7 7 6 5 5 4 5 5 5 5 5 5 4 3 3 4 4 5 4 4 4 3 3 4 5 5 6 7 8 7 7 8 7 6 6 6 5 5 5 5 4 4 4 2 1
12 13 12 11 15 19 19 19 18 18 18 17 18 18 17 17 16 15 15 15 14 14 15 15 14 14 14 14 14 14 13 13 13 12 12 11 10 9 8 7 6 6 5 5 4 4 4 4 4 4 3 4 4 4 3 3 3 4 5 5 5 4 3 3 4 5 5 6 7 7 7 7 7 6 6 6 6 6 6 6 5 4 5 4 3
14 15 14 13 16 19 19 18 18 18 17 17 17 17 17 17 16 15 15 15 15 15 15 15 15 14 14 13 13 13 13 13 13 12 11 10 9 7 6 6 5 5 5 5 5 5 4 4 4 4 3 3 3 4 4 4 3 3 4 5 5 6 4 3 4 4 4 5 6 6 6 6 6 5 6 6 6 6 6 6 6 5 5 4 4
15 16 15 14 16 18 18 18 17 17 16 16 16 16 17 17 16 15 15 15 15 14 15 15 15 14 14 13 13 13 13 13 12 11 10 8 6 5 5 4 4 4 4 5 5 6 6 5 5 4 4 4 4 5 5 6 6 5 5 5 5 6 6 4 4 4 4 4 4 5 5 5 5 5 5 6 5 5 5 6 6 6 6 5 5
16 17 17 16 16 18 18 18 17 17 16 16 16 16 17 16 15 14 14 14 14 14 14 15 15 15 14 13 13 12 12 12 11 10 8 7 5 4 4 4 4 4 4 5 6 7 8 8 7 7 7 6 6 6 5 6 7 8 8 8 6 6 6 5 4 4 4 3 3 4 4 4 4 5 5 5 5 5 5 5 5 6 6 6 6
17 18 18 17 17 17 17 17 17 17 16 16 15 16 16 16 14 14 14 14 14 13 13 14 15 15 15 14 13 12 11 11 10 9 7 5 4 3 3 4 4 5 6 7 8 9 9 10 9 9 9 8 7 6 5 5 6 8 9 9 8 7 7 5 4 4 4 4 3 2 2 2 3 3 4 4 4 4 5 4 4 5 5 6 6
19 18 19 19 18 17 16 16 17 17 16 16 15 16 16 15 14 13 14 14 13 13 13 13 15 15 15 14 13 12 11 10 9 7 5 3 3 3 4 5 5 6 8 9 10 10 11 11 10 10 9 8 8 7 6 5 5 7 8 9 9 8 7 6 4 4 5 5 5 3 2 2 3 3 3 4 4 4 5 5 5 5 5 5 5
19 19 19 20 19 17 16 16 16 16 16 15 15 15 15 14 13 13 14 14 13 13 13 13 14 14 14 13 12 12 10 9 7 5 3 2 3 4 4 5 6 7 9 10 11 12 12 12 11 10 9 8 8 7 7 6 5 6 7 8 9 8 8 7 5 5 5 6 7 6 5 4 4 4 5 5 5 5 5 5 5 6 6 7 7
19 19 19 19 18 16 14 14 15 16 15 15 15 14 14 13 13 14 14 14 14 13 13 13 13 14 14 13 12 11 9 8 6 3 2 2 4 5 5 6 7 8 10 11 12 13 13 12 12 11 10 9 8 7 7 8 7 7 7 8 8 8 8 7 7 6 5 6 7 7 6 5 5 5 5 5 6 6 5 6 6 6 7 7 8
19 19 18 17 16 15 13 13 13 14 14 14 15 15 15 14 14 15 14 14 14 13 13 12 13 13 13 13 12 10 8 6 4 2 1 3 5 6 7 7 8 9 11 12 13 14 14 13 13 11 10 9 9 8 8 9 10 10 9 9 8 8 8 8 8 7 7 6 7 7 8 7 6 6 6 6 6 6 6 6 6 6 7 8 8
19 18 17 17 16 15 14 13 13 12 13 15 16 16 16 16 15 15 14 13 13 12 12 12 12 12 12 12 11 9 7 6 4 2 1 4 6 7 8 8 9 10 11 13 14 14 14 14 13 12 11 11 11 10 10 10 11 11 11 10 9 8 8 8 8 8 8 8 7 7 8 8 8 7 7 6 6 6 6 6 6 7 8 8 9
18 18 18 17 17 16 15 14 13 12 13 14 16 16 16 15 14 14 13 12 11 10 11 11 12 12 12 12 11 8 6 5 3 1 2 5 7 8 9 9 10 10 11 12 13 14 15 15 14 12 11 11 12 12 12 12 12 13 13 11 9 9 8 8 8 8 8 8 9 9 9 9 9 9 8 8 7 7 7 7 7 7 7 8 9
18 18 18 17 17 16 14 12 12 12 12 12 14 14 14 14 14 14 13 12 10 9 10 11 12 12 13 12 10 8 6 4 2 1 3 6 8 9 10 10 10 10 11 11 13 15 15 14 14 14 13 12 11 11 12 12 13 14 13 10 8 8 9 8 8 7 7 8 9 9 10 10 10 10 10 9 9 8 8 8 8 8 8 9 9
18 18 17 16 16 15 13 13 13 13 12 12 12 12 12 12 13 13 13 12 11 10 11 12 13 12 12 11 9 7 5 3 2 2 4 6 8 9 10 10 9 9 10 10 12 14 14 14 14 14 14 12 11 11 12 13 13 14 12 10 8 8 8 8 8 7 7 7 8 9 10 10 10 11 11 11 11 10 10 10 10 10 10 11 11
18 17 16 16 16 16 15 15 14 13 12 11 10 10 10 11 12 13 13 14 13 12 12 12 12 12 12 10 8 7 6 4 3 3 4 6 8 9 9 9 8 8 8 9 12 13 13 13 13 13 12 12 11 12 13 14 14 14 14 13 11 9 8 8 8 8 8 7 8 8 9 10 11 11 12 12 12 12 12 11 11 11 12 13 13
18 17 17 17 17 17 16 15 14 13 11 10 9 9 9 10 11 12 14 14 13 13 12 12 13 13 12 10 9 8 6 5 4 4 5 6 7 8 8 8 7 7 7 8 10 12 12 12 12 12 12 11 11 12 13 14 14 15 15 15 13 11 10 9 9 10 10 9 9 8 8 9 10 10 11 12 12 12 12 12 12 12 12 13 14
18 18 19 19 18 17 16 14 13 12 10 9 9 9 9 10 11 12 11 11 11 12 12 13 13 13 12 11 10 8 6 5 5 5 5 6 7 8 8 6 6 6 5 7 10 10 11 12 12 12 11 10 11 12 13 13 14 15 14 14 13 12 12 11 10 10 10 10 9 9 8 8 8 9 10 11 12 12 12 12 12 12 13 13 14
19 19 19 19 18 17 16 15 13 12 10 9 9 10 10 11 12 11 11 11 11 12 12 12 13 13 12 12 10 8 6 6 5 6 6 6 7 8 7 6 5 5 5 7 9 9 11 12 12 10 9 10 11 12 13 14 15 15 14 13 13 12 12 11 11 10 10 10 10 10 9 8 8 8 9 10 11 11 12 12 13 13 14 15 16
18 19 19 19 19 19 18 17 15 13 12 11 10 11 12 12 12 11 12 12 11 10 12 13 13 14 13 12 10 8 7 6 6 7 7 7 8 8 8 6 5 4 5 6 8 8 10 11 10 9 8 9 10 11 12 13 14 14 13 13 13 13 12 12 11 11 10 10 9 9 8 8 8 7 7 8 9 10 11 11 12 13 14 16 17
19 19 19 18 18 18 18 18 17 16 15 14 13 13 13 12 11 12 12 12 11 11 12 13 14 14 13 12 10 8 7 7 7 8 8 8 9 9 9 7 5 5 5 6 7 7 9 10 9 8 7 7 8 9 10 11 12 12 12 12 12 12 12 12 12 12 12 11 10 9 8 7 7 7 7 7 7 8 9 10 11 12 13 15 17
18 18 18 17 16 16 16 16 17 17 16 16 15 15 14 13 12 13 13 12 12 12 13 14 14 14 14 12 10 9 9 9 9 9 9 9 9 10 10 8 7 6 6 6 6 6 8 8 8 8 7 7 7 8 9 10 10 11 11 11 11 10 10 10 10 11 11 11 11 10 9 8 7 6 6 6 7 8 9 9 10 11 13 14 16
Wind_Direction
111 112 113 117 113 112 117 119 115 107 101 98 101 109 114 114 111 107 105 98 96 95 96 94 91 89 86 86 86 88 89 90 92 91 88 82 76 71 70 69 68 68 68 71 73 76 75 75 82 88 90 90 89 87 85 88 90 89 90 93 96 97 95 94 95 97 99 103 110 110 106 105 108 111 108 100 101 106 118 129 135 138 140 139 139
112 112 116 118 115 114 115 115 110 102 98 100 107 113 114 110 106 103 100 98 100 100 99 93 88 85 83 86 87 88 88 90 91 88 84 79 75 70 68 67 67 68 69 71 72 74 75 81 84 86 88 90 93 94 91 88 86 84 85 87 91 94 95 94 95 95 96 100 106 108 105 104 106 108 105 99 98 102 114 126 132 136 138 138 139
113 113 118 120 120 118 116 115 107 100 100 107 113 116 111 105 102 101 101 102 104 100 94 87 83 81 83 86 85 85 85 86 86 85 84 81 80 77 74 71 71 71 72 74 74 74 76 86 90 88 87 90 95 97 95 88 83 80 79 82 86 91 95 95 96 97 97 98 104 110 107 104 104 105 103 100 99 102 111 123 131 135 138 138 140
117 119 122 123 124 121 117 114 106 101 105 112 114 113 105 101 102 103 104 104 101 94 86 80 77 78 81 81 81 82 84 86 87 89 88 86 84 83 82 81 83 81 81 81 82 83 86 90 88 87 83 81 83 84 82 78 77 75 74 78 84 90 94 98 100 101 102 103 105 110 107 102 102 104 104 104 104 105 112 122 130 135 137 139 142
117 120 121 120 119 115 113 113 107 104 110 114 109 106 102 102 106 105 102 99 93 84 78 75 75 78 79 80 82 86 89 91 94 96 93 90 87 86 86 88 89 86 84 84 87 91 94 92 85 83 79 76 74 74 72 71 74 76 77 78 86 94 97 99 101 104 107 109 110 111 108 105 104 105 107 107 108 110 115 121 129 134 137 140 143
113 117 118 117 114 111 112 113 108 108 115 116 107 103 102 106 106 100 95 90 83 78 75 75 78 80 81 84 87 91 94 98 102 101 97 93 90 89 87 86 85 79 77 78 81 85 88 87 83 82 82 81 79 78 76 76 79 86 94 95 98 99 101 100 100 102 106 110 111 111 111 111 109 108 110 110 111 113 117 122 128 134 138 142 146
111 112 114 113 112 113 114 113 111 112 114 109 103 99 102 104 98 92 88 83 78 76 77 79 81 83 86 88 90 92 95 100 102 101 98 95 92 91 89 86 81 76 75 76 77 79 82 83 83 83 82 82 80 79 77 80 84 94 108 117 114 105 102 101 100 99 101 106 110 111 113 116 116 114 115 114 115 116 118 123 129 134 139 143 147
107 106 105 105 109 113 112 109 109 108 103 97 95 93 95 93 88 86 83 80 78 79 81 83 85 88 89 89 89 91 95 99 99 99 98 95 93 92 91 89 84 80 79 79 80 79 82 83 86 86 84 84 84 80 74 76 82 96 110 118 118 109 104 100 99 97 97 102 107 112 115 120 124 124 120 118 118 119 122 127 131 136 140 143 147
104 99 95 97 104 108 107 103 100 96 91 89 88 87 87 85 84 83 81 80 81 82 83 85 87 88 87 87 88 92 98 99 99 99 98 97 96 93 92 91 87 86 86 86 87 86 86 88 92 96 96 95 94 88 80 77 83 99 113 117 117 115 113 106 101 97 96 98 104 109 114 122 129 131 128 127 125 124 127 130 133 138 142 146 149
100 91 89 94 99 102 101 96 92 88 87 87 86 86 85 83 83 81 82 83 83 83 84 85 85 85 86 88 90 94 96 97 98 98 99 100 99 97 95 93 90 92 93 92 93 92 93 94 98 102 103 101 100 94 88 83 88 104 112 116 117 119 119 113 106 101 97 97 102 107 111 120 127 130 134 134 132 131 133 134 135 138 142 146 148
92 87 92 92 94 95 92 89 86 87 88 88 87 85 84 83 83 84 86 86 84 84 84 84 84 85 87 90 94 94 93 92 93 94 96 98 99 99 98 96 93 94 95 95 94 94 94 97 98 99 100 99 96 91 86 81 86 102 110 113 115 117 120 117 111 104 99 97 102 107 113 122 127 132 138 138 138 141 141 140 139 141 142 143 146
83 84 87 90 92 90 86 84 84 89 91 90 87 85 85 86 88 90 90 87 86 86 86 86 86 87 88 92 94 94 92 90 89 90 92 93 96 97 99 99 94 91 93 96 94 91 91 93 97 99 96 94 91 85 80 79 82 98 108 110 110 112 116 118 115 109 104 101 101 106 113 121 124 130 141 146 146 148 149 147 145 145 145 144 147
72 76 79 87 94 91 86 84 86 92 95 92 89 88 89 92 95 95 91 90 91 91 90 90 89 88 89 91 92 92 91 90 90 90 92 94 96 98 101 102 98 93 92 93 90 90 96 95 93 91 89 89 88 85 79 77 79 88 99 106 108 106 106 112 116 115 112 109 106 105 108 111 114 124 140 152 155 154 154 152 150 149 148 149 149
62 67 78 91 99 95 90 89 93 98 97 95 92 94 96 98 98 96 95 96 96 95 95 94 92 90 89 89 90 90 90 91 91 92 92 94 96 99 101 102 101 97 92 88 86 93 98 90 78 73 74 75 80 84 82 77 76 79 87 100 109 107 104 107 111 116 122 122 120 114 109 107 110 121 134 149 160 161 159 157 155 154 153 155 155
61 64 77 97 105 101 96 97 101 105 103 100 98 100 101 101 100 100 101 102 102 101 100 98 94 91 89 89 89 89 89 90 92 93 92 92 93 96 99 100 99 96 91 87 87 89 88 81 74 71 70 70 73 76 78 75 72 71 73 84 96 101 102 106 107 111 123 135 139 133 122 115 114 119 128 142 156 162 164 163 162 160 161 163 164
60 63 75 100 109 106 105 106 109 114 111 105 104 104 103 103 104 106 107 107 107 106 104 101 97 94 92 90 88 87 88 90 92 92 93 92 93 94 97 98 98 97 94 93 91 89 88 85 81 79 77 76 76 75 74 72 68 66 66 69 69 72 78 87 94 101 116 139 152 151 141 135 133 130 130 137 149 159 164 167 168 167 167 168 170
57 63 78 103 112 113 114 114 118 122 118 112 109 107 105 107 110 112 112 111 111 109 107 104 100 97 95 93 92 91 92 94 96 95 93 92 93 95 95 94 95 96 96 95 93 91 90 87 84 81 80 78 76 74 72 70 69 68 67 67 65 62 61 63 72 82 95 130 160 167 164 156 153 150 145 142 145 152 160 165 168 169 171 173 172
61 68 87 109 115 120 123 121 123 125 121 118 114 110 109 111 114 115 114 114 114 113 111 108 104 101 100 98 97 97 98 99 100 99 96 94 95 95 94 91 91 92 94 93 92 91 89 87 84 82 80 78 74 72 71 70 69 68 67 66 66 64 60 57 58 63 70 87 142 173 183 180 171 164 160 154 148 148 156 161 164 167 171 174 172
68 78 99 114 118 125 127 125 126 126 125 122 118 114 113 115 116 117 117 118 118 116 114 112 109 106 104 102 101 101 102 102 102 100 100 99 98 96 93 92 91 91 92 92 90 88 86 85 83 81 78 76 74 73 73 72 69 67 67 66 66 63 60 57 55 56 58 58 73 134 177 191 191 181 172 170 162 154 157 160 162 165 168 170 171
78 91 112 120 124 128 130 130 129 130 129 126 121 118 118 117 116 117 118 119 119 118 116 115 112 110 107 105 104 104 105 105 103 102 102 101 100 98 95 94 93 91 90 88 86 85 85 85 84 81 77 75 73 73 72 71 68 65 63 63 62 61 59 57 54 54 57 55 51 55 102 171 190 193 182 180 176 166 162 161 163 164 165 167 169
90 105 123 127 131 130 131 135 133 134 133 130 125 121 120 118 117 117 118 120 120 120 118 117 115 112 109 107 107 107 107 106 105 104 104 103 102 100 97 95 93 90 88 86 86 86 87 87 86 83 78 76 72 70 69 67 65 63 60 56 56 56 57 57 55 54 57 58 57 53 41 63 168 184 181 182 181 175 169 163 161 162 163 167 170
100 119 133 137 135 130 133 138 137 137 137 133 127 124 121 119 119 118 119 122 123 122 121 119 116 114 112 110 110 110 110 108 107 106 106 105 103 100 98 95 93 91 90 89 90 90 90 89 86 82 77 74 72 70 68 67 64 61 58 55 54 53 53 54 54 54 56 57 60 60 57 50 65 129 168 179 181 180 178 171 163 164 165 170 176
108 131 142 147 139 131 137 141 141 142 141 137 131 125 122 121 122 121 122 125 127 125 123 121 119 117 115 113 113 113 111 110 109 108 108 106 104 101 99 97 95 93 92 90 88 85 83 81 78 75 72 70 69 68 66 66 64 61 56 52 51 49 49 49 48 51 53 54 57 59 61 58 54 63 116 166 180 184 186 186 179 172 171 174 180
125 142 150 156 144 137 144 146 145 146 144 140 133 127 124 123 124 124 126 128 129 127 125 123 121 119 117 116 116 114 113 112 111 109 109 107 106 104 101 99 97 94 91 87 83 79 74 71 69 68 66 66 66 65 63 59 57 59 57 52 49 49 48 46 44 44 46 49 51 52 54 56 55 54 58 123 171 184 190 196 197 189 183 182 185
144 153 157 160 151 147 151 150 149 149 146 141 135 129 126 125 125 127 129 130 130 129 128 126 124 122 121 120 119 117 116 115 113 112 111 110 108 106 102 100 98 96 93 90 87 82 76 71 67 63 60 59 59 60 60 56 53 53 55 53 49 50 50 46 43 41 40 42 44 46 45 48 52 54 54 79 139 173 193 200 204 202 198 197 199
157 163 163 163 158 155 155 153 151 150 147 143 136 131 128 125 126 128 131 131 131 130 129 128 126 125 124 123 123 122 120 119 117 116 116 113 110 108 105 104 102 100 97 94 91 88 85 80 73 65 59 55 52 50 51 53 52 49 49 49 47 49 50 47 44 40 41 39 39 42 42 43 47 51 55 62 83 111 167 193 204 210 215 221 225
172 170 170 167 161 160 157 154 152 151 148 144 139 134 130 128 128 130 132 132 132 132 131 130 130 128 127 127 126 126 124 122 120 119 118 115 111 109 107 107 106 102 98 93 90 88 86 81 75 69 62 54 48 42 37 38 41 45 44 38 38 45 46 44 42 40 41 41 39 40 40 40 43 45 47 45 55 81 95 131 183 205 226 244 254
182 175 174 168 163 162 158 155 154 152 149 145 140 136 132 130 131 132 134 134 134 135 134 134 133 131 131 130 130 130 128 125 123 122 119 116 113 110 107 104 101 97 93 88 83 79 75 71 67 63 58 49 42 32 24 24 26 33 38 30 26 34 40 39 38 37 40 45 42 42 42 39 38 36 34 35 42 65 73 75 90 105 167 274 283
180 176 175 170 163 161 159 156 154 152 148 145 142 138 135 135 136 137 137 137 138 139 138 137 135 134 134 134 133 132 130 129 125 123 121 119 116 112 108 103 97 90 85 80 75 72 69 67 64 60 55 47 39 26 10 9 16 16 24 25 19 23 28 31 34 32 34 46 47 45 46 42 38 31 23 29 36 44 57 62 54 53 63 43 349
175 173 174 172 163 161 159 155 152 150 148 146 144 141 140 141 142 142 142 142 143 143 142 140 137 137 138 136 134 133 132 130 127 124 121 119 115 111 106 100 94 87 81 74 64 58 55 51 51 50 48 45 39 28 8 360 4 4 4 9 11 17 18 20 30 31 28 42 49 47 47 46 43 33 22 24 28 28 30 39 41 38 42 39 357
171 169 172 173 163 160 159 155 153 151 149 149 148 146 146 147 147 148 148 148 148 148 146 144 142 142 142 138 136 134 132 129 125 122 120 116 112 108 102 96 90 83 75 66 52 39 33 27 26 26 26 28 24 16 8 359 358 355 351 347 349 6 15 8 20 32 28 35 46 47 46 45 43 32 23 25 24 21 20 23 35 32 17 6 295
169 165 170 171 164 161 160 158 155 153 153 153 152 151 153 153 153 152 153 154 153 153 152 150 149 147 144 140 138 135 132 128 125 121 118 115 111 106 100 93 84 75 65 52 37 21 13 8 2 359 358 1 354 342 339 347 355 352 343 336 333 339 358 357 4 25 30 31 40 43 42 44 43 29 18 24 22 22 24 20 27 27 10 352 323
167 163 168 168 164 164 162 161 159 157 158 157 157 156 158 159 158 156 157 157 156 157 156 155 154 150 146 143 141 138 134 130 125 122 119 115 111 105 97 86 74 64 51 36 23 12 5 358 344 334 331 327 317 314 321 326 338 345 332 326 324 323 334 348 349 7 23 28 36 39 38 41 45 35 20 21 19 20 25 21 19 23 16 357 341
167 165 168 167 165 166 165 165 164 163 163 163 163 161 162 164 163 160 158 156 156 156 157 158 156 153 150 147 145 141 136 131 127 124 120 115 108 97 86 72 59 45 34 23 12 5 2 357 347 337 331 326 320 317 319 323 328 333 324 317 319 317 324 344 344 346 1 15 31 37 33 34 39 38 28 22 20 20 26 22 16 18 17 6 354
170 168 169 166 164 167 169 170 170 169 170 171 169 167 167 167 166 163 159 157 155 155 155 157 157 155 153 152 149 144 137 132 129 125 121 115 103 85 65 46 33 19 15 13 7 3 2 357 353 347 344 344 343 335 329 328 325 326 322 315 316 315 318 336 340 327 329 339 12 35 33 30 31 34 33 27 20 17 26 27 17 12 10 7 1
174 170 170 168 165 167 170 173 174 175 175 175 174 171 170 170 169 164 160 159 156 154 153 155 156 156 155 154 150 145 139 135 132 128 123 112 90 58 35 21 9 1 1 3 1 0 0 359 357 353 352 352 349 343 339 332 321 318 315 312 313 313 311 321 325 310 307 309 318 359 24 26 28 31 34 36 27 15 18 23 16 6 3 3 358
175 171 171 173 172 169 171 176 178 178 178 178 178 175 173 172 170 166 162 160 157 155 155 155 156 156 155 153 150 146 143 140 135 129 119 97 61 30 16 8 359 354 355 357 356 357 359 360 358 357 356 353 349 348 346 338 322 312 308 307 309 308 303 303 301 294 294 294 295 304 323 344 1 10 20 31 34 26 18 14 9 358 351 350 348
175 174 175 176 176 175 176 179 179 179 180 181 181 178 176 174 171 168 164 161 159 158 157 157 157 156 155 154 152 149 147 143 135 126 109 72 35 17 9 3 357 353 354 354 354 355 358 358 358 359 358 354 350 349 345 340 332 316 305 300 299 298 295 293 289 283 283 288 294 299 308 323 335 343 354 8 20 27 23 17 10 358 347 341 340
175 177 179 177 177 179 180 180 178 178 181 181 181 180 179 177 175 173 168 164 161 160 160 161 160 158 157 157 155 153 150 146 139 128 86 39 20 14 7 1 358 354 353 354 354 356 358 358 359 360 358 354 351 348 342 341 341 333 320 307 297 293 291 290 288 283 278 282 290 295 298 305 315 321 331 344 358 7 12 14 10 360 349 340 338
176 179 180 178 178 180 179 179 179 178 180 181 180 181 182 182 181 178 173 168 163 163 163 164 163 162 161 161 160 160 158 154 149 148 18 15 14 10 3 360 358 356 356 357 357 358 359 359 358 356 352 348 346 342 339 340 342 338 329 318 310 304 300 296 292 287 281 278 280 287 293 297 300 303 310 321 334 342 349 355 357 354 346 340 338
178 181 179 179 181 180 180 180 179 178 182 185 183 184 185 185 185 181 177 173 168 167 167 167 166 166 168 167 168 169 169 167 164 179 344 3 8 6 359 358 358 357 359 359 358 358 357 354 351 347 343 341 340 339 339 338 337 334 328 324 322 318 314 308 300 293 288 285 282 281 285 289 292 294 298 304 312 319 326 332 337 340 339 337 335
180 183 181 182 181 180 183 181 180 183 185 187 187 188 189 188 187 184 182 179 175 172 170 170 171 172 174 176 177 180 183 183 183 208 347 359 2 1 356 354 355 356 359 359 357 356 354 350 347 341 339 345 349 348 348 344 339 334 328 322 321 322 323 318 309 299 293 290 287 284 282 283 286 289 291 294 296 300 306 311 317 322 324 325 325
183 183 182 181 179 180 183 182 184 189 186 184 187 190 191 191 189 189 189 185 182 180 177 177 178 178 181 185 187 190 198 204 210 299 353 357 357 357 353 349 349 354 359 359 357 356 354 352 348 344 346 358 7 8 7 2 355 348 339 328 324 327 329 329 323 312 300 291 287 285 284 282 282 283 285 286 287 289 291 295 300 304 305 306 310
187 185 183 179 179 180 180 182 187 187 183 181 183 187 190 192 192 193 194 191 190 192 188 186 185 184 187 193 196 200 214 231 262 324 349 352 353 354 351 346 346 353 359 358 358 358 356 352 350 352 359 10 23 28 29 25 18 13 9 3 356 351 346 342 339 332 319 303 292 287 285 283 281 280 280 281 283 284 285 288 292 295 297 297 298
186 184 181 179 180 180 178 181 182 179 179 179 178 182 189 194 196 196 196 195 196 198 195 191 190 190 193 199 204 212 227 246 277 314 338 347 350 351 349 343 342 350 356 357 358 356 355 356 359 6 13 21 31 35 36 35 33 32 32 30 25 17 8 357 350 346 339 326 310 297 290 286 283 281 279 280 281 283 285 287 289 292 294 296 297
182 179 178 179 179 178 177 177 175 174 175 175 175 183 192 198 202 202 200 197 196 196 194 192 192 195 197 202 211 221 232 249 275 302 325 341 346 347 347 340 336 345 351 354 353 351 359 11 16 18 21 29 36 36 35 35 35 36 38 39 36 31 25 16 5 358 352 343 329 316 303 293 287 283 281 281 282 283 285 287 289 292 293 295 297
180 176 177 179 177 175 174 174 175 176 176 175 179 191 200 205 210 210 207 204 199 195 194 195 195 198 201 207 218 228 236 251 273 296 315 334 340 342 342 335 330 337 345 348 346 350 9 23 26 25 27 33 34 33 31 32 32 31 32 35 37 34 31 27 21 14 7 359 349 339 328 313 299 290 284 283 284 286 287 290 291 293 296 298 299
178 174 175 176 175 174 174 176 179 181 182 185 191 203 210 212 215 217 217 215 206 198 198 198 198 202 208 216 228 237 242 256 276 293 307 323 332 336 337 329 323 327 333 340 342 357 21 30 31 30 32 34 32 30 28 28 29 26 25 26 29 30 28 25 22 17 14 10 5 358 350 340 324 306 294 288 287 287 288 290 293 296 299 301 302
174 175 177 176 175 175 175 176 179 182 186 191 200 212 218 219 220 223 224 224 217 209 207 204 204 208 213 222 232 241 249 261 276 287 299 314 324 330 330 321 314 313 322 333 341 6 27 32 34 35 36 36 34 31 27 25 24 22 21 23 25 27 26 22 17 12 8 5 4 2 359 355 348 333 316 303 296 292 291 293 295 297 299 299 301
175 178 181 180 179 178 177 177 179 183 186 191 199 210 218 219 221 224 225 224 220 219 218 215 213 215 220 227 236 245 252 259 269 279 291 305 316 323 323 314 305 300 310 326 339 9 28 30 33 34 35 36 33 29 23 19 17 14 14 17 18 21 24 24 21 15 9 2 357 354 353 352 351 347 339 327 315 308 303 301 301 301 301 300 300
177 180 182 184 186 186 185 186 186 185 186 190 197 205 212 216 218 220 220 220 217 219 225 225 222 222 226 232 240 246 249 253 263 273 285 299 311 318 319 311 297 291 299 316 334 7 25 26 28 28 25 24 21 19 19 18 16 12 9 9 8 7 9 12 13 12 10 5 360 356 353 349 343 339 334 327 322 317 312 309 307 305 304 302 301